This is the latest recevied weather packets stored in our database for station/object N6GPM. If no packets are shown the sender has not sent any weather packets the latest 10 day(s).
| Time | Temp. | Humidity | Pressure | Rain* | Wind** | Luminosity | Snow |
|---|---|---|---|---|---|---|---|
| 1777939472 | 17.22° C | 58% | 1017.4 hPa | 0 mm | - | 215 W/m² | - |
| 1777938866 | 17.22° C | 59% | 1017.3 hPa | 0 mm | - | 409 W/m² | - |
| 1777934925 | 17.22° C | 55% | 1017.5 hPa | 0 mm | - | 212 W/m² | - |
| 1777934318 | 17.22° C | 55% | 1017.5 hPa | 0 mm | - | 269 W/m² | - |
| 1777934013 | 17.22° C | 55% | 1017.6 hPa | 0 mm | - | 201 W/m² | - |
| 1777933710 | 17.22° C | 54% | 1017.7 hPa | 0 mm | - | 275 W/m² | - |
| 1777933106 | 17.78° C | 53% | 1017.8 hPa | 0 mm | - | 482 W/m² | - |
| 1777932499 | 17.78° C | 53% | 1018.1 hPa | 0 mm | - | 612 W/m² | - |
| 1777932196 | 17.78° C | 51% | 1018.2 hPa | 0 mm | - | 300 W/m² | - |
| 1777931893 | 17.22° C | 52% | 1017.9 hPa | 0 mm | - | 285 W/m² | - |
| 1777930073 | 17.78° C | 52% | 1018.4 hPa | 0 mm | - | 803 W/m² | - |
| 1777929769 | 16.67° C | 53% | 1018.5 hPa | 0 mm | - | 678 W/m² | - |
| 1777929466 | 16.67° C | 55% | 1018.7 hPa | 0 mm | - | 320 W/m² | - |
| 1777929162 | 16.67° C | 55% | 1018.6 hPa | 0 mm | - | 328 W/m² | - |
| 1777928860 | 16.67° C | 56% | 1018.6 hPa | 0 mm | - | 414 W/m² | - |
| 1777928254 | 16.67° C | 56% | 1018.5 hPa | 0 mm | - | 266 W/m² | - |
| 1777927952 | 16.11° C | 57% | 1018.7 hPa | 0 mm | - | 193 W/m² | - |
| 1777927348 | 16.11° C | 56% | 1018.8 hPa | 0 mm | - | 214 W/m² | - |
| 1777927047 | 16.11° C | 57% | 1018.5 hPa | 0 mm | - | 212 W/m² | - |
| 1777925530 | 16.11° C | 56% | 1018.6 hPa | 0 mm | - | 454 W/m² | - |
| 1777924620 | 15.56° C | 57% | 1018.8 hPa | 0 mm | - | 358 W/m² | - |
| 1777924013 | 15.56° C | 57% | 1019.2 hPa | 0 mm | - | 281 W/m² | - |
| 1777923103 | 16.11° C | 59% | 1019 hPa | 0 mm | - | 307 W/m² | - |
| 1777922499 | 15.56° C | 59% | 1019 hPa | 0 mm | - | 326 W/m² | - |
| 1777922197 | 15.56° C | 60% | 1019.2 hPa | 0 mm | - | 361 W/m² | - |
* Rain latest hour (hover to see other rain measurements)
** Current wind speed in m/s (hover to see current wind gust speed)